Location: Madingley
(52.2167°N, 0.0500°E)
Time: 12:31:56
(UTC+00:00)

ADEOS - Pass Details

Date: 15 May 2026
Orbit: 789 x 792 km, 98.8° (Epoch: 8 June)

Event Time Altitude Azimuth Distance (km) Brightness Sun altitude
Rises 20:25:23 0° 169° (SSE) 3,279 6.3 -5.4°
Reaches altitude 10° 20:27:42 10° 171° (S) 2,354 5.6 -5.6°
Maximum altitude 20:32:54 72° 256° (WSW) 836 3.9 -6.2°
Drops below altitude 10° 20:38:08 10° 341° (NNW) 2,370 7.2 -6.8°
Sets 20:40:28 0° 344° (NNW) 3,303 8.0 -7.1°
